Location: Newark
(47.5989°N, 4.6950°E)
Time: 20:32:25
(UTC+00:00)

Envisat - Pass Details

Date: 22 November 2019
Orbit: 764 x 766 km, 98.1° (Epoch: 15 December)

Event Time Altitude Azimuth Distance (km) Brightness Sun altitude
Rises 05:47:02 0° 22° (NNE) 3,243 6.3 -11.5°
Reaches altitude 10° 05:49:37 10° 33° (NNE) 2,312 5.7 -11.0°
Maximum altitude 05:54:05 30° 94° (E) 1,349 5.2 -10.3°
Drops below altitude 10° 05:58:31 10° 156° (SSE) 2,296 6.1 -9.6°
Sets 06:01:04 0° 166° (SSE) 3,217 6.7 -9.2°
